Zurück zum Katalog

STARLINK-30977

AktivKommunikationVLEO
NORAD 58459·PAYLOAD·🇺🇸 United States

Gestartet Nov 28, 2023 von Cape Canaveral Space Force Station

Loading…

Nächste Überflüge (nächste 24 Stunden)

TLE

AktuellSource: CelesTrak SupGP

Epoche: Sep 14, 2026, 13:37 UTC

1 58459C 23183Y   26257.56784722 -.00037947  00000+0 -13742-2 0  2578
2 58459  43.0020  55.2504 0001369 266.6934 215.7043 15.27603636    10

Verfolge STARLINK-30977 in Echtzeit mit AllMySat

Download on the App Store